177  
ASUS41 KOKX 220405  
RWROKX  
 
REGIONAL WEATHER ROUNDUP  
NATIONAL WEATHER SERVICE NEW YORK NY  
1100 PM EST SUN DEC 21 2014  
 
NOTE: "FAIR" INDICATES FEW OR NO CLOUDS BELOW 12,000 FEET WITH NO  
SIGNIFICANT WEATHER AND/OR S TO VISIBILITY
.  
 
NYZ071-072-176-178-NJZ106-104-220500-  
NEW YORK CITY METRO AREA  
 
 
CITY SKY/WX TMP DP RH WIND PRES REMARKS
 
CENTRAL PARK CLOUDY 35 29 78 NE6 30.35S WCI 30  
LAGUARDIA APRT CLOUDY 35 30 82 N6 30.34R WCI 30  
KENNEDY INTL CLOUDY 37 30 75 N7 30.34S WCI 32  
NEWARK/LIBERTY CLOUDY 34 29 82 N8 30.34R WCI 27  
BRNX BOT. GARD N/A N/A N/A N/A NW1 30.36R  
TETERBORO CLOUDY 35 28 75 N6 30.34R WCI 30  

 
 
NYZ177-179-078>081-220500-  
LONG ISLAND NEW YORK  
 
CITY SKY/WX TMP DP RH WIND PRES REMARKS
 
FARMINGDALE CLOUDY 36 33 89 NE6 30.33R WCI 31  
ISLIP DRIZZLE 36 32 85 N8 30.30S WCI 30  
SHIRLEY CLOUDY 36 34 92 N5 30.32S WCI 32  
WESTHAMPTON CLOUDY 37 34 89 N9 30.33S WCI 30  
MONTAUK POINT N/A 39 35 86 NE9 30.32F WCI 33  

 
 
NYZ052-065-067-220500-  
HUDSON VALLEY  
 
CITY SKY/WX TMP DP RH WIND PRES REMARKS
 
WHITE PLAINS CLOUDY 33 29 85 N6 30.31S WCI 28  
NEWBURGH CLOUDY 30 28 93 NE7 30.34S WCI 23  
MONTGOMERY CLOUDY 32 27 81 NE5 30.33S WCI 27  
POUGHKEEPSIE LGT SNOW 32 27 81 NE5 30.35S WCI 27  
ALBANY CLOUDY 30 23 75 N3 30.38R  

 
 
NJZ001-105-106-008-010-013-015-019>022-104-220500-  
NEW JERSEY  
 
CITY SKY/WX TMP DP RH WIND PRES REMARKS
 
NEWARK/LIBERTY CLOUDY 34 29 82 N8 30.34R WCI 27  
TETERBORO CLOUDY 35 28 75 N6 30.34R WCI 30  
CALDWELL CLOUDY 33 27 78 N3 30.34S  
MORRISTOWN CLOUDY 36 28 75 N3 30.34R  
SOMERVILLE CLOUDY 36 26 67 N3 30.32R  
SUSSEX CLOUDY 31 26 82 NE6 30.33R WCI 25  
ANDOVER N/A 31 26 82 VRB5 30.32S WCI 26  
TRENTON CLOUDY 32 24 72 CALM 30.33S  
MILLVILLE CLEAR 22 18 85 CALM 30.34R  
ATLANTIC CITY CLEAR 24 20 84 CALM 30.33S  
WRIGHTSTOWN CLOUDY 33 26 75 W3 30.31S  
TOMS RIVER CLOUDY 32 27 80 CALM 30.34S  
BELMAR CLOUDY 36 25 64 CALM 30.32F  

 
 
PAZ047>061-062-071-220500-  
EASTERN PENNSYLVANIA  
 
CITY SKY/WX TMP DP RH WIND PRES REMARKS
 
PHILADELPHIA PTCLDY 31 22 69 NW5 30.35S WCI 26  
ALLENTOWN CLOUDY 26 21 81 SW3 30.33R  
SCRANTON CLOUDY 30 22 72 CALM 30.30S  

 
 
CTZ002-004>006-009-010-012-RIZ004-006-007-MAZ004-011-015-220500-  
SOUTHERN NEW ENGLAND  
IN CT  
 
CITY SKY/WX TMP DP RH WIND PRES REMARKS
 
BRADLEY INTL CLOUDY 34 30 85 N5 30.34S WCI 30  
HARTFORD CLOUDY 33 30 88 N6 30.36S WCI 28  
DANBURY CLOUDY 33 28 81 CALM 30.33S  
WTRBRY/OXFORD CLOUDY 32 27 80 NE6 30.32S WCI 26  
BRIDGEPORT CLOUDY 36 33 89 N8 30.33F WCI 30  
MERIDEN CLOUDY 34 30 85 N5 30.35S WCI 30  
NEW HAVEN CLOUDY 37 32 82 N9 30.33S WCI 30  
CHESTER MIX PCPN 34 32 93 N6 30.32S WCI 29  
GROTON CLOUDY 34 32 92 N10 30.32F WCI 26  
WILLIMANTIC CLOUDY 33 30 88 N5 30.34F WCI 29  
 
IN RI  
 
CITY SKY/WX TMP DP RH WIND PRES REMARKS
 
PROVIDENCE DRIZZLE 34 30 85 N7 30.35S WCI 28  
BLOCK ISLAND CLOUDY 37 34 87 NE13G18 30.31S WCI 29  
WESTERLY CLOUDY 35 31 85 NE7 30.34S WCI 29  
 
IN MA  
 
CITY SKY/WX TMP DP RH WIND PRES REMARKS
 
BOSTON CLOUDY 34 25 69 N6 30.37S WCI 29  
WORCESTER CLOUDY 29 27 92 N7 30.31S WCI 22  
WESTFIELD CLOUDY 33 30 88 N5 30.35S WCI 29  
PROVINCETOWN CLOUDY 43 36 75 NE10 30.34S  
NANTUCKET CLOUDY 41 38 89 N8 30.31S  

 
 
ANZ330-335-338-340-345-350-353-355-220500-  
COASTAL MARINE OBSERVATIONS  
 
 
STATION/POSITION TIME SKY/WX TEMP WIND PRES VSBY WAVE
 
AIR SEA DIR/SP/G HT/PER  
(UTC) (F) (DEG/KT/KT) (MB) (MI) (FT/S)  
NY HARB ENTRANCE 0400 38 47 20/ 8/ 12 1027.5 1/ 5  
4S FIRE IS 0400 45 N/A 2/ 5  
20S FIRE ISLAND 0300 40 49 1026.8 2/10  
23SW MTP 0400 N/A 4/ 5  
HUDSON CANYON 0400 42 55 330/ 8/ 12 1025.8 2/10  
EXECUTION ROCKS 0400 36 41 360/ 8/ 10 N/A  
WESTERN LI SOUND 0400 36 10/ 8/ 8 N/A 0  
CENTRAL LI SOUND 0300 36 44 40/ 12/ 14 N/A 1/ 2  
EASTERN LI SOUND NOT AVBL  
ROBBINS REEF 0400 35 210/ 5/ 9 1026.1  

 
 
>>>>>>>>>>>>>>>>>>>>>>>>>>>> KEY <<<<<<<<<<<<<<<<<<<<<<<<<<<  
> <  
> SKY/WX - SKY CONDITION/PRESENT WEATHER <  
> TMP - TEMPERATURE IN FAHRENHEIT <  
> DP - DEWPOINT IN FAHRENHEIT <  
> RH - RELATIVE HUMIDITY IN PERCENT <  
> WIND - DIRECTION AND SPEED IN MPH <  
> PRES - MEAN SEA LEVEL PRESSURE IN INCHES OF HG <  
> WCI - WIND CHILL INDEX <  
> VSB - VISIBILITY IN MILES <  
> HX - HEAT INDEX <  
> TC - TEMPERATURE IN CELSIUS <  
> VRB - VARIABLE WIND DIRECTION <  
> <  
>>>>>>>>>>>>>>>>>>>>>>>>>>>> KEY <<<<<<<<<<<<<<<<<<<<<<<<<<<  
 
CLICK HERE TO GO TO PREVIOUS BULLETINS.

The Nexlab NY Page
The Nexlab NJ Page
The Nexlab CT Page Main Text Page